Location: Norwich
(42.5310°N, 75.5240°W)
Time: 21:52:26
(UTC-04:00)

Envisat - Pass Details

Date: 26 March 2019
Orbit: 764 x 766 km, 98.1° (Epoch: 17 October)

Event Time Altitude Azimuth Distance (km) Brightness Sun altitude
Rises 20:29:10 0° 195° (SSW) 3,215 6.2 -13.2°
Reaches altitude 10° 20:31:45 10° 207° (SSW) 2,294 5.6 -13.6°
Maximum altitude 20:36:04 28° 265° (W) 1,411 5.1 -14.4°
Drops below altitude 10° 20:40:24 10° 324° (NW) 2,309 6.3 -15.1°
Sets 20:43:03 0° 336° (NNW) 3,240 6.9 -15.6°
